Flag for U.S.A. Weather past 2 weeks in Rapid City, South Dakota, U.S.A.

Now
49 °F

Sunny.


Feels Like: 45 °F
Forecast: 43 / 69 °F
Wind: 9 mph from Northwest

Location: Ellsworth Air Force Base

Current Time: Mar 30, 2015 at 8:25:44 AM

Latest Report: Mar 30, 2015 at 7:58 AM


Visibility: 10 mi

Pressure: 30.03 "Hg

Humidity: 40%

Dew point: 25 °F

Location of Rapid CityLocation

Historic Weather in Rapid City — Graph

°F

Rapid City temperature yesterday

Maximum temperature yesterday: 63 °F (at 2:58 PM)
Minimum temperature yesterday: 41 °F (at 7:03 AM)
Average temperature yesterday: 52 °F

Past Weeks' High & Low Weather Summary

 TemperatureHumidityPressure
High83 °F (Mar 15, 2:58 PM)93% (Mar 21, 5:58 AM)30.58 "Hg (Mar 21, 5:58 AM)
Low27 °F (Mar 18, 6:58 AM)12% (Mar 28, 4:58 PM)29.51 "Hg (Mar 28, 5:58 PM)
Average47 °F53%30.03 "Hg
* Reported Mar 15 6:58 AM — Mar 30 6:58 AM, Rapid City, Weather by CustomWeather, © 2015

Note: Actual official high and low records may vary slightly from our data, if they occured in-between our weather recording intervals... More about our weather records

Advertising

Rapid City weather history for previous 24 hours

 ConditionsComfort  
Time TempWeatherWind HumidityBarometerVisibility
6:58 AM
Mon, Mar 30
39 °FSunny.8 mph50%30.01 "Hg10 mi
5:58 AM41 °FClear.8 mph45%30.00 "Hg10 mi
4:58 AM41 °FClear.10 mph48%29.99 "Hg10 mi
3:58 AM37 °FClear.7 mph57%29.98 "Hg10 mi
2:58 AM39 °FClear.7 mph58%29.99 "Hg10 mi
1:58 AM43 °FClear.6 mph51%29.99 "Hg10 mi
12:58 AM45 °FClear.6 mph49%30.01 "Hg10 mi
11:58 PM
Sun, Mar 29
48 °FClear.6 mph42%30.02 "Hg10 mi
10:58 PM45 °FPassing clouds.8 mph51%30.06 "Hg10 mi
9:58 PM49 °FPassing clouds.3 mph43%30.06 "Hg10 mi
8:58 PM49 °FPassing clouds.3 mph41%30.07 "Hg10 mi
7:58 PM55 °FClear.2 mph34%30.06 "Hg10 mi
6:58 PM57 °FSunny.8 mph34%30.06 "Hg10 mi
5:58 PM60 °FPassing clouds.8 mph28%30.06 "Hg10 mi
4:58 PM61 °FPassing clouds.14 mph26%30.06 "Hg10 mi
3:58 PM62 °FSunny.20 mph25%30.06 "Hg10 mi
2:58 PM63 °FSunny.16 mph25%30.07 "Hg10 mi
1:58 PM62 °FPassing clouds.13 mph27%30.09 "Hg10 mi
12:58 PM60 °FScattered clouds.16 mph32%30.14 "Hg10 mi
11:58 AM56 °FSunny.14 mph40%30.16 "Hg10 mi
10:58 AM53 °FPassing clouds.21 mph46%30.18 "Hg10 mi
9:58 AM49 °FPassing clouds.25 mph51%30.19 "Hg10 mi
8:58 AM46 °FSunny.29 mph59%30.17 "Hg10 mi
Weather by CustomWeather, © 2015

See weather overviewHow to use our weather pages